OE3FJB-25 Weather Reports


time (UTC)temp
C
wind
direction
speed
KPH
gust
KPH
rain 1hr
cm
rain 24hr
cm
rain mn
cm
humidity
%
barometer
mb
20260505102151 23 0.0 0.0 0.00 0.00 0.00 59 1011.8
20260505101153 23 0.0 0.0 0.00 0.00 0.00 59 1011.9
20260505100154 23 0.0 0.0 0.00 0.00 0.00 59 1011.9
20260505095156 24 0.0 0.0 0.00 0.00 0.00 57 1011.9
20260505094157 24 0.0 0.0 0.00 0.00 0.00 61 1012.1
20260505093159 22 0.0 0.0 0.00 0.00 0.00 71 1012.2
20260505092200 23 0.0 0.0 0.00 0.00 0.00 70 1012.2
20260505091201 24 0.0 0.0 0.00 0.00 0.00 69 1012.3
20260505090203 23 0.0 0.0 0.00 0.00 0.00 79 1012.4
20260505085204 22 0.0 0.0 0.00 0.00 0.00 95 1012.5
20260505084206 21 0.0 0.0 0.00 0.00 0.00 99 1012.4
20260505083207 21 0.0 0.0 0.00 0.00 0.00 99 1012.5
20260505082209 20 0.0 0.0 0.00 0.00 0.00 99 1012.5
20260505081210 19 0.0 0.0 0.00 0.00 0.00 99 1012.5
20260505080211 19 0.0 0.0 0.00 0.00 0.00 99 1012.7
20260505075213 19 0.0 0.0 0.00 0.00 0.00 99 1012.6
20260505074214 18 0.0 0.0 0.00 0.00 0.00 99 1012.6
20260505073216 18 0.0 0.0 0.00 0.00 0.00 99 1012.8
20260505072217 19 0.0 0.0 0.00 0.00 0.00 99 1012.8
20260505071218 19 0.0 0.0 0.00 0.00 0.00 99 1012.8
20260505070220 17 0.0 0.0 0.00 0.00 0.00 99 1012.9
20260505065221 18 0.0 0.0 0.00 0.00 0.00 99 1012.9
20260505064223 18 0.0 0.0 0.00 0.00 0.00 99 1012.9
20260505063224 18 0.0 0.0 0.00 0.00 0.00 99 1012.9
20260505062225 17 0.0 0.0 0.00 0.00 0.00 99 1013.0
20260505061227 17 0.0 0.0 0.00 0.00 0.00 99 1013.0
20260505060228 16 0.0 0.0 0.00 0.00 0.00 99 1013.0
20260505055229 16 0.0 0.0 0.00 0.00 0.00 99 1013.2
20260505054231 15 0.0 0.0 0.00 0.00 0.00 99 1013.1
20260505053232 15 0.0 0.0 0.00 0.00 0.00 99 1013.1
20260505052232 15 0.0 0.0 0.00 0.00 0.00 99 1013.1
20260505051233 14 0.0 0.0 0.00 0.00 0.00 99 1013.1
20260505050234 14 0.0 0.0 0.00 0.00 0.00 99 1013.1
20260505041241 13 0.0 0.0 0.00 0.00 0.00 99 1013.3
20260505040243 13 0.0 0.0 0.00 0.00 0.00 99 1013.3
20260505035244 13 0.0 0.0 0.00 0.00 0.00 99 1013.3
20260505034245 13 0.0 0.0 0.00 0.00 0.00 99 1013.3
20260505033244 13 0.0 0.0 0.00 0.00 0.00 99 1013.3
20260505032246 13 0.0 0.0 0.00 0.00 0.00 99 1013.3
20260505031247 13 0.0 0.0 0.00 0.00 0.00 99 1013.4
20260505030248 13 0.0 0.0 0.00 0.00 0.00 99 1013.3
20260505025250 13 0.0 0.0 0.00 0.00 0.00 99 1013.4
20260505024251 13 0.0 0.0 0.00 0.00 0.00 99 1013.5
20260505023252 13 0.0 0.0 0.00 0.00 0.00 99 1013.5
20260505022254 14 0.0 0.0 0.00 0.00 0.00 99 1013.5
20260505021255 13 0.0 0.0 0.00 0.00 0.00 99 1013.6
20260505020257 13 0.0 0.0 0.00 0.00 0.00 99 1013.7
20260505015258 14 0.0 0.0 0.00 0.00 0.00 99 1013.7
20260505014259 14 0.0 0.0 0.00 0.00 0.00 99 1013.7
20260505013301 14 0.0 0.0 0.00 0.00 0.00 99 1013.7
20260505012304 14 0.0 0.0 0.00 0.00 0.00 99 1013.8
20260505011303 14 0.0 0.0 0.00 0.00 0.00 99 1013.9
20260505010305 14 0.0 0.0 0.00 0.00 0.00 99 1013.9
20260505005306 14 0.0 0.0 0.00 0.00 0.00 99 1014.1
20260505004308 14 0.0 0.0 0.00 0.00 0.00 99 1014.1
20260505003309 13 0.0 0.0 0.00 0.00 0.00 99 1014.2
20260505002310 13 0.0 0.0 0.00 0.00 0.00 99 1014.2
20260505001312 13 0.0 0.0 0.00 0.00 0.00 99 1014.3
20260505000313 13 0.0 0.0 0.00 0.00 0.00 99 1014.5
20260504235314 13 0.0 0.0 0.00 0.00 0.00 99 1014.6
20260504234316 13 0.0 0.0 0.00 0.00 0.00 99 1014.6
20260504233317 14 0.0 0.0 0.00 0.00 0.00 99 1014.8
20260504232319 14 0.0 0.0 0.00 0.00 0.00 99 1014.9
20260504231320 14 0.0 0.0 0.00 0.00 0.00 99 1015.1
20260504230321 14 0.0 0.0 0.00 0.00 0.00 99 1015.1
20260504225323 15 0.0 0.0 0.00 0.00 0.00 99 1015.2
20260504224324 15 0.0 0.0 0.00 0.00 0.00 99 1015.2
20260504223325 15 0.0 0.0 0.00 0.00 0.00 99 1015.3
20260504222327 15 0.0 0.0 0.00 0.00 0.00 93 1015.3
20260504221328 16 0.0 0.0 0.00 0.00 0.00 88 1015.3
20260504220329 16 0.0 0.0 0.00 0.00 0.00 82 1015.3
20260504215331 16 0.0 0.0 0.00 0.00 0.00 80 1015.4
20260504214332 16 0.0 0.0 0.00 0.00 0.00 82 1015.5
20260504213334 15 0.0 0.0 0.00 0.00 0.00 88 1015.5
20260504212335 16 0.0 0.0 0.00 0.00 0.00 85 1015.6
20260504211336 16 0.0 0.0 0.00 0.00 0.00 82 1015.7
20260504210338 15 0.0 0.0 0.00 0.00 0.00 83 1015.7
20260504205339 15 0.0 0.0 0.00 0.00 0.00 85 1015.7
20260504204341 15 0.0 0.0 0.00 0.00 0.00 83 1015.6
20260504203342 15 0.0 0.0 0.00 0.00 0.00 79 1015.5
20260504202344 16 0.0 0.0 0.00 0.00 0.00 76 1015.4
20260504201345 16 0.0 0.0 0.00 0.00 0.00 74 1015.4
20260504200346 16 0.0 0.0 0.00 0.00 0.00 68 1015.4
20260504195348 17 0.0 0.0 0.00 0.00 0.00 63 1015.4
20260504194349 17 0.0 0.0 0.00 0.00 0.00 60 1015.5
20260504193350 17 0.0 0.0 0.00 0.00 0.00 59 1015.5
20260504192352 17 0.0 0.0 0.00 0.00 0.00 58 1015.6
20260504191353 17 0.0 0.0 0.00 0.00 0.00 59 1015.5
20260504190355 18 0.0 0.0 0.00 0.00 0.00 59 1015.5
20260504185356 18 0.0 0.0 0.00 0.00 0.00 61 1015.4
20260504184357 18 0.0 0.0 0.00 0.00 0.00 63 1015.5
20260504183359 18 0.0 0.0 0.00 0.00 0.00 63 1015.6
20260504182400 18 0.0 0.0 0.00 0.00 0.00 64 1015.6
20260504181401 18 0.0 0.0 0.00 0.00 0.00 71 1015.6
20260504180403 18 0.0 0.0 0.00 0.00 0.00 72 1015.7
20260504175404 19 0.0 0.0 0.00 0.00 0.00 72 1015.6
20260504174406 19 0.0 0.0 0.00 0.00 0.00 72 1015.6
20260504173407 20 0.0 0.0 0.00 0.00 0.00 72 1015.5
20260504172408 20 0.0 0.0 0.00 0.00 0.00 71 1015.6
20260504171410 20 0.0 0.0 0.00 0.00 0.00 69 1015.6
20260504170411 20 0.0 0.0 0.00 0.00 0.00 66 1015.6
20260504160420 21 0.0 0.0 0.00 0.00 0.00 63 1015.9
20260504150428 21 0.0 0.0 0.00 0.00 0.00 47 1016.2
20260504140436 22 0.0 0.0 0.00 0.00 0.00 43 1016.6
20260504130444 23 0.0 0.0 0.00 0.00 0.00 40 1017.3
20260504110502 25 0.0 0.0 0.00 0.00 0.00 38 1018.2